Northolt, United Kingdom

8:19 AM BST on June 23, 2017 (GMT +0100)
Northolt Air Base

Weather History for EGWU - December, 2013

Change the Weather History Date:

Sunday, December 29, 2013

  Actual Average Record
Temperature  
Mean Temperature 36 °F -  
Max Temperature 46 °F 44 °F 55 °F (2002)
Min Temperature 27 °F 35 °F 15 °F (2000)
Degree Days  
Heating Degree Days 29    
Moisture  
Dew Point 33 °F    
Average Humidity 82    
Maximum Humidity 100    
Minimum Humidity 56    
Precipitation  
Precipitation 0.01 in - - ()
Sea Level Pressure  
Sea Level Pressure 29.97 in    
Wind  
Wind Speed 5 mph ()    
Max Wind Speed 13 mph    
Max Gust Speed -    
Visibility 10.6 miles    
Events      
Averages and records for this station are not official NWS values.
T = Trace of Precipitation, MM = Missing Value Source: Averaged Metar Reports

Daily Weather History Graph

Daily Weather History Graph

Search for Another Location

Airport or City:

Trip Planner

Search our weather history database for the weather conditions in past years. The results will help you decide how hot, cold, wet, or windy it might be!

Date:

Astronomy

Dec. 29, 2013 Rise Set
Actual Time 8:07 AM GMT 4:00 PM GMT
Civil Twilight 7:27 AM GMT 4:40 PM GMT
Nautical Twilight 6:44 AM GMT 5:23 PM GMT
Astronomical Twilight 6:03 AM GMT 6:04 PM GMT
Moon 4:22 AM GMT (12/29) 1:36 PM GMT (12/29)
Length of Visible Light 9h 12m
Length of Day
7h 52m
Waning Crescent, 12% of the Moon is Illuminated
Dec 29
Waning Crescent
Jan 1
New
Jan 8
First Quarter
Jan 16
Full
Jan 24
Last Quarter

Hourly Weather History & Observations

Time (GMT) Temp. Windchill Dew Point Humidity Pressure Visibility Wind Dir Wind Speed Gust Speed Precip Events Conditions
12:00 AM 30 °F - 29 °F 92% 29.73 in 5 mi WNW 4.6 mph - -  
12:50 AM 28.4 °F - 28.4 °F 100% 29.74 in 6.2 mi WNW 1.2 mph - N/A   Unknown
1:00 AM 29 °F - 28 °F 93% 29.75 in 9 mi WNW 1.2 mph - -  
1:50 AM 30.2 °F 26.7 °F 28.4 °F 93% 29.77 in 3.7 mi WSW 3.5 mph - N/A   Unknown
2:00 AM 30 °F - 29 °F 95% 29.78 in 4 mi WSW 3.5 mph - -  
2:50 AM 30.2 °F - 28.4 °F 93% 29.77 in 3.7 mi SW 1.2 mph - N/A   Unknown
3:00 AM 30 °F - 29 °F 95% 29.80 in 4 mi SW 1.2 mph - -  
3:50 AM 32.0 °F 27.5 °F 32.0 °F 100% 29.80 in 6.2 mi West 4.6 mph - N/A   Unknown
4:00 AM 32 °F - 31 °F 95% 29.83 in 12 mi West 4.6 mph - -  
4:50 AM 32.0 °F - 30.2 °F 93% 29.83 in 6.2 mi West 2.3 mph - N/A   Unknown
5:00 AM 31 °F - 30 °F 96% 29.86 in 12 mi West 2.3 mph - -  
5:50 AM 32.0 °F - 30.2 °F 93% 29.86 in 6.2 mi West 2.3 mph - N/A   Unknown
6:00 AM 31 °F - 31 °F 99% 29.89 in 11 mi West 2.3 mph - -  
6:50 AM 30.2 °F - 30.2 °F 100% 29.89 in - Calm Calm - N/A   Clear
7:00 AM 31 °F - 30 °F 94% 29.91 in 12 mi Calm Calm - -  
7:50 AM 33.8 °F 26.4 °F 32.0 °F 93% 29.95 in - West 9.2 mph - N/A   Clear
8:00 AM 33 °F - 32 °F 94% 29.96 in 16 mi West 9.2 mph - -  
8:50 AM 33.8 °F 27.0 °F 32.0 °F 93% 29.98 in 6.2 mi West 8.1 mph - N/A   Partly Cloudy
9:00 AM 34 °F - 32 °F 89% 29.99 in 16 mi West 8.1 mph - -   Scattered Clouds
9:50 AM 35.6 °F 31.7 °F 33.8 °F 93% 30.01 in - West 4.6 mph - N/A   Clear
10:00 AM 36 °F - 33 °F 84% 30.01 in 16 mi West 4.6 mph - -  
10:50 AM 39.2 °F 33.6 °F 33.8 °F 81% 30.01 in - West 8.1 mph - N/A   Clear
11:00 AM 39 °F - 34 °F 75% 30.03 in 19 mi West 8.1 mph - -  
11:50 AM 42.8 °F 37.5 °F 33.8 °F 70% 30.04 in - WSW 9.2 mph - N/A   Clear
12:00 PM 42 °F - 35 °F 66% 30.04 in 19 mi WSW 9.2 mph - -  
12:50 PM 44.6 °F 39.2 °F 33.8 °F 66% 30.04 in - WSW 10.4 mph - N/A   Clear
1:00 PM 44 °F - 34 °F 58% 30.05 in 19 mi WSW 10.4 mph - -  
1:50 PM 44.6 °F 39.2 °F 33.8 °F 66% 30.04 in - WSW 10.4 mph - N/A   Clear
2:00 PM 45 °F - 34 °F 56% 30.06 in 25 mi WSW 10.4 mph - -   Clear
2:50 PM 44.6 °F 38.8 °F 33.8 °F 66% 30.06 in - WSW 11.5 mph - N/A   Clear
3:00 PM 45 °F - 35 °F 56% 30.07 in 25 mi WSW 11.5 mph - -   Clear
3:50 PM 42.8 °F 39.3 °F 33.8 °F 70% 30.06 in - SW 5.8 mph - N/A   Clear
4:00 PM 42 °F - 34 °F 65% 30.09 in 19 mi SW 5.8 mph - -   Clear
4:50 PM 41.0 °F 38.0 °F 33.8 °F 76% 30.06 in - SSW 4.6 mph - N/A   Clear
5:00 PM 40 °F - 34 °F 72% 30.09 in 19 mi SSW 4.6 mph - -   Clear
5:50 PM 41.0 °F 36.4 °F 33.8 °F 76% 30.06 in - SSW 6.9 mph - N/A   Clear
6:00 PM 40 °F - 34 °F 73% 30.09 in 19 mi SSW 6.9 mph - -   Clear
6:50 PM 41.0 °F 35.8 °F 35.6 °F 81% 30.06 in - South 8.1 mph - N/A   Clear
7:00 PM 41 °F - 35 °F 72% 30.08 in 19 mi South 8.1 mph - -   Clear
7:50 PM 42.8 °F 37.0 °F 35.6 °F 76% 30.06 in 6.2 mi SSW 10.4 mph - N/A   Mostly Cloudy
8:00 PM 42 °F - 36 °F 70% 30.08 in 25 mi SSW 10.4 mph - -   Mostly Cloudy
8:50 PM 41.0 °F 37.1 °F 35.6 °F 81% 30.04 in 6.2 mi SSW 5.8 mph - N/A   Unknown
9:00 PM 41 °F - 36 °F 75% 30.06 in 22 mi SSW 5.8 mph - -  
9:50 PM 42.8 °F 38.0 °F 37.4 °F 81% 30.04 in 6.2 mi SSW 8.1 mph - N/A   Partly Cloudy
10:00 PM 43 °F - 38 °F 75% 30.05 in 28 mi SSW 8.1 mph - -   Scattered Clouds
10:50 PM 44.6 °F 38.4 °F 39.2 °F 81% 30.01 in 6.2 mi SSW 12.7 mph - N/A   Mostly Cloudy
11:00 PM 45 °F - 39 °F 73% 30.03 in 22 mi SSW 12.7 mph - -   Mostly Cloudy
11:50 PM 46.4 °F 40.7 °F 41.0 °F 81% 30.01 in 6.2 mi SSW 12.7 mph - N/A   Mostly Cloudy